User: anonymous   Login
Location: Boston
(42.3580°N, 71.0600°W)
Time: 09:46:36
(UTC-04:00)
Language:

Tiangong 2 - Orbit

View from above orbital plane
View from above orbital plane
View from above satellite
View from above satellite

Ground track
Ground track

The orbit data is extracted from the following two-line orbital elements,

1 41765U 16057A   18109.06472572  .00004288  00000-0  54109-4 0  9999
2 41765  42.7856 335.4210 0004146 229.5505 257.7758 15.60987953 90742
Epoch (UTC): 19 April 2018 01:33:12
Eccentricity: 0.0004146
inclination: 42.7856°
perigee height: 382 km
apogee height: 387 km
right ascension of ascending node: 335.4210°
argument of perigee: 229.5505°
revolutions per day: 15.60987953
mean anomaly at epoch: 257.7758°
orbit number at epoch: 9074

The dashed part of the orbit path shows where the satellite is in the earth's shadow,  

DLR